Location: Eyeline Observatory
(43.2182°N, 78.8632°W)
Time: 05:31:29
(UTC-04:00)

Tiangong 1 - Pass Details

Date: 10 October 2017
Orbit: 292 x 319 km, 42.8° (Epoch: 23 October)

Event Time Altitude Azimuth Distance (km) Brightness Sun altitude
Rises 19:19:27 0° 264° (W) 2,045 7.3 -7.9°
Reaches altitude 10° 19:21:26 10° 263° (W) 1,210 5.3 -8.3°
Maximum altitude 19:24:09 81° 177° (S) 319 0.6 -8.8°
Enters shadow 19:26:18 14° 89° (E) 980 2.4 -9.2°
